Create Custom Reports and Graphics: Custom Report

Map - Northern Napa County

Map

15 Minute Data

Map - Southern Napa County

Map

15 Minute Data

Northeast Napa County

11 Stations

15 Minute Data | America/Los_Angeles
as of 5/6/26 5:00 PM PDT
Station Date Time Temp (°F) RH (%) Dew Pt (°F) Wind Spd (mph) Wind Dir (°) Wind Gust (mph) Latest Rain (In) Daily Rain (In) Daily Max Temp (°F) Daily Min Temp (°F)
Dollarhide 17B Remote 5/6/26 1645 - - - - - - - - 80.0   6.9 50.0   2.1
Dollarhide 18A Remote 5/6/26 1645 79.4   12.5 55   13 61.9   5.7 - - - - - 80.1   10.5 54.5   3.3
Dollarhide 1AS Remote 5/6/26 1645 79.0   12.1 56   11 62.2   6.4 4.0   2.4 SW | 225 9.1   3.5 - - 80.4   8.5 55.3   3.4
Angwin 5/6/26 1700 68.2   12.0 66   17 56.5   5.2 1.8   0.8 S | 179 6.5   1.9 0.00 0.00 69.7   11.5 50.0   4.5
Lower Angwin (Pioneer) 5/6/26 1645 70.5   11.5 - - 4.9   0.7 WSW | 242 9.7   0.1 - - 71.4   10.1 50.9   3.7
Lower Chiles Valley (Brown) 5/6/26 1645 75.1   12.2 51   19 55.9   2.8 4.2   0.1 WSW | 252 12.4   2.5 0.00 0.00 76.7   10.3 53.1   2.3
Deer Park 5/6/26 1700 75.1   10.7 56   9 58.6   5.9 6.5   2.4 WNW | 289 12.4   3.4 0.00 0.00 77.1   9.6 53.5   2.6
Moss Creek Vineyard/Reservior 5/6/26 1645 75.8   11.8 52   17 56.8   3.4 - - - 0.00 0.00 77.4   12.5 54.6   3.8
Montesol 5/6/26 1700 70.6   13.1 - - - - - 0.00 0.00 74.8   13.8 51.8   4.2
Dollarhide Base 5/6/26 1700 79.0   10.1 58   7 63.0   6.2 6.0   3.8 SW | 217 9.6   4.8 0.00 0.00 80.1   6.6 55.4   3.5
Pope Valley (Weeks Lake) 5/6/26 1645 77.9   8.9 48   8 56.9   4.0 3.0   2.2 SW | 232 7.2   3.1 0.00 0.00 78.3   7.9 55.0   4.0
Max     79.4 66 63.0 6.5 - 12.4 0.00 0.00 80.4 55.4
Avg     75.1 55 59.0 4.3 - 9.6 0.00 - - -
Min     68.2 48 55.9 1.8 - 6.5 0.00 0.00 69.7 50.0

Northern & Central Napa County

32 Stations

15 Minute Data | America/Los_Angeles
as of 5/6/26 5:00 PM PDT
Station Date Time Temp (°F) RH (%) Dew Pt (°F) Wind Spd (mph) Wind Dir (°) Wind Gust (mph) Latest Rain (In) Daily Rain (In) Daily Max Temp (°F) Daily Min Temp (°F)
Calistoga-North 5/6/26 1645 76.8   13.4 55   20 59.2   4.1 - - - 0.00 0.00 80.7   13.9 55.0   3.0
Stags Leap Dist (Chimney Rock) 5/6/26 1700 74.3   10.1 61   12 60.0   4.4 6.3   0.9 S | 184 11.0   1.5 0.00 0.00 76.7   9.9 54.6   1.8
Diamond Mtn (McEachran) 5/6/26 1645 73.0   10.5 57   12 57.1   4.7 - - - - - 76.5   13.0 53.7   2.6
Diamond Mtn (Schramsberg) 5/6/26 1700 73.3   11.8 58   13 57.5   5.4 - - - 0.00 0.00 76.7   11.6 52.5   2.7
Stags Leap Dist (Silverado Vineyards) 5/6/26 1645 74.0   10.2 56   11 57.3   4.5 6.9   4.4 SSE | 159 10.6   3.4 0.00 0.00 75.7   8.3 54.1   2.2
Oak Knoll-East (Ranch 53) 5/6/26 1645 74.3   10.8 53   15 56.2   3.3 5.3   0.8 SW | 220 12.0   2.6 0.00 0.00 77.3   9.4 55.4   2.9
Rutherford-North (Mee Ln) 5/6/26 1645 78.2   11.8 53   12 59.4   5.5 4.5   2.5 SW | 235 10.1   5.0 0.00 0.00 79.9   8.8 54.4   6.8
Frisinger Napa-NW 5/6/26 1645 73.3   8.7 58   12 57.6   2.9 8.7   2.1 SW | 226 14.0   2.5 0.00 0.00 75.5   8.8 55.1   2.2
Napa-North (Ranch 29) 5/6/26 1700 - 57   13 - 5.2   0.1 SSW | 208 10.2   1.1 0.00 0.00 76.0   10.1 55.0   2.9
St. Helena (NVV Office) 5/6/26 1645 77.8   9.4 - - 3.3   0.1 WSW | 251 10.4   2.5 0.00 0.00 80.1   9.3 56.0   3.2
Crossroads Ranch 5/6/26 1645 76.9   12.8 58   12 61.1   6.9 5.7   1.9 SSE | 163 9.8   6.0 0.00 0.00 77.3   9.0 55.6   2.9
Oakville 5/6/26 1700 77.4   13.2 52   17 58.2   4.7 4.9   0.3 SW | 228 11.2   1.8 0.00 0.00 78.7   10.6 55.4   3.1
OV561-East 5/6/26 1645 80.3   16.2 - - - - - - - 81.0   12.2 55.3   2.6
OV518-West 5/6/26 1700 76.0   11.6 - - - - - - - 76.8   8.9 55.4   3.0
Napa-NW (Ranch 54) 5/6/26 1645 75.9   9.3 51   11 56.5   3.2 2.9   1.1 SSW | 194 8.9   2.7 0.00 0.00 77.5   8.0 55.5   2.6
Calistoga (Ranch 78) 5/6/26 1700 74.8   11.0 53   16 56.5   3.2 5.6   0.5 W | 271 11.2   1.8 0.00 0.00 79.4   12.2 55.2   2.6
Yountville-SE (Ranch 85) 5/6/26 1645 75.6   11.7 55   16 58.4   3.9 2.0   2.5 SW | 225 7.1   5.5 0.00 0.00 77.7   10.3 55.0   2.4
Yountville-South (Ranch 87) 5/6/26 1645 74.8   10.5 56   14 58.3   3.8 6.1   2.3 SW | 215 11.6   3.7 0.00 0.00 76.3   8.2 55.2   2.8
Rutherford Hill Estate 5/6/26 1645 78.3   13.3 52   16 59.1   5.0 3.4   0.7 W | 265 11.2   1.3 0.00 0.00 79.7   8.9 54.4   3.3
Rutherford (STS) 5/6/26 1700 75.8   11.1 61   11 61.5   5.8 7.0   2.8 WSW | 254 13.0   5.9 0.00 0.00 78.8   7.9 55.1   2.8
Borreo (Soda Canyon) 5/6/26 1645 72.4   10.8 57   14 56.2   4.1 3.9   0.1 S | 185 9.7   1.4 0.00 0.00 74.1   9.7 52.7   2.4
Oakville-NE (Ranch 88) 5/6/26 1700 79.3   15.4 47   22 57.1   3.8 2.0   2.9 WNW | 283 6.8   3.9 0.00 0.00 80.0   9.6 55.6   3.3
Soda Canyon 5/6/26 1645 74.3   10.8 64   10 61.5   6.4 6.3   0.4 SSW | 201 14.0   2.8 0.00 0.00 75.0   9.3 54.1   1.6
Silver Oak OV 5/6/26 1700 77.3   13.1 54   16 59.6   5.4 4.9   1.6 SW | 216 11.5   0.0 0.00 0.00 77.9   9.2 55.7   3.1
Tiara Fria (East St. Helena) 5/6/26 1645 76.7   9.8 55   9 59.1   4.9 5.8   0.5 W | 265 11.0   0.4 0.00 0.00 79.0   8.9 56.3   3.4
To Kalon Remote (TKKE) 5/6/26 1645 78.1   12.8 - - - - - - - 79.4   10.2 56.1   3.2
To Kalon 5/6/26 1700 76.8   12.4 54   14 58.9   5.3 4.9   1.1 W | 269 10.9   1.5 0.00 0.00 78.9   9.9 55.3   2.9
To Kalon Remote (TKN5) 5/6/26 1700 76.9   11.9 - - - - - - - 78.8   9.3 55.8   2.9
St. Helena-North 5/6/26 1645 77.8   11.8 48   12 56.4   4.8 3.5   1.5 WNW | 294 11.0   4.2 0.00 0.00 80.2   9.6 55.3   2.8
Twomey Calistoga 5/6/26 1645 75.7   10.6 57   9 59.2   6.1 5.2   2.1 W | 275 11.8   4.2 0.00 0.00 78.0   10.4 55.0   2.6
Wappo Hill Floor 5/6/26 1645 75.2   11.0 55   16 57.8   3.2 6.2   1.0 SSW | 211 10.8   0.6 0.00 0.00 77.0   9.2 54.1   3.9
Yountville (Ranch 67) 5/6/26 1645 74.8   11.2 53   14 56.7   4.0 7.0   1.8 SSE | 159 11.6   0.9 0.00 0.00 76.2   9.3 54.4   2.7
Max     80.3 64 61.5 8.7 - 14.0 0.00 0.00 81.0 56.3
Avg     76.0 55 58.3 5.1 - 10.8 0.00 - - -
Min     72.4 47 56.2 2.0 - 6.8 0.00 0.00 74.1 52.5

Southern Napa County

23 Stations

15 Minute Data | America/Los_Angeles
as of 5/6/26 5:00 PM PDT
Station Date Time Temp (°F) RH (%) Dew Pt (°F) Wind Spd (mph) Wind Dir (°) Wind Gust (mph) Latest Rain (In) Daily Rain (In) Daily Max Temp (°F) Daily Min Temp (°F)
Carneros (Milton Rd) 5/6/26 1700 71.2   7.9 60   11 56.7   3.0 - - - 0.00 0.00 75.2   7.6 54.8   2.1
Carneros Lower (Ranch 81) 5/6/26 1700 69.0   6.2 63   14 56.0   0.6 2.5   2.0 W | 280 11.7   7.6 0.00 0.02 75.2   6.8 54.7   2.7
Carneros Upper (Ranch 81) 5/6/26 1700 67.1   6.1 64   7 54.4   2.8 13.9   5.6 W | 262 20.7   8.0 - - 73.5   8.2 53.8   2.4
Carneros (Mitsuko) 5/6/26 1645 70.2   7.7 - - - - - - - 74.6   7.7 54.4   1.9
Mount George (Napa East) 5/6/26 1645 75.6   11.2 58   12 59.6   5.2 3.3   0.8 SSW | 211 9.1   1.8 0.00 0.00 76.5   11.0 55.6   2.1
Napa-East (Palmaz 300') 5/6/26 1645 74.6   11.7 56   14 57.7   5.0 4.8   2.1 SW | 216 9.6   2.3 0.00 0.00 76.4   10.3 54.2   2.4
Napa-East (Palmaz 1200') 5/6/26 1645 69.1   10.7 65   15 56.9   4.8 3.5   1.9 WSW | 244 8.5   3.2 - - 70.5   11.4 51.5   2.6
Napa-East (Palmaz 1400') 5/6/26 1700 68.1   10.5 69   14 57.5   5.0 4.5   1.4 SSW | 210 10.9   2.3 0.00 0.00 70.3   10.2 51.1   3.2
Dealy Lane (Ranch 80) 5/6/26 1700 70.4   7.4 59   12 55.4   1.8 4.3   1.0 W | 265 10.8   1.4 0.00 0.00 75.4   8.4 55.0   2.7
Suscol Mtn (Ranch 93) 5/6/26 1700 68.4   10.0 64   14 55.8   4.1 12.3   6.3 NW | 304 17.8   5.6 0.00 0.00 72.5   7.0 51.4   2.2
Carneros (Saintsbury) 5/6/26 1645 71.2   9.0 58   15 55.9   2.4 9.0   1.0 W | 260 15.9   4.4 0.00 0.00 74.9   8.3 53.7   5.0
Sugarloaf West 5/6/26 1645 71.4   8.2 63   11 58.0   3.4 7.3   2.0 SW | 229 12.4   0.8 0.00 0.00 73.8   8.7 54.2   1.4
Suscol Upper (Ranch 92) 5/6/26 1700 69.1   9.5 63   13 55.9   3.8 9.6   8.0 SW | 225 14.3   3.1 0.00 0.00 73.6   10.7 52.0   2.2
Stanly (Ranch 45) 5/6/26 1700 71.6   8.6 59   13 56.3   2.6 10.1   0.5 W | 262 15.0   0.8 0.00 0.00 77.3   9.5 53.8   4.0
Suscol Lower (Ranch 35) 5/6/26 1700 72.2   9.9 56   15 55.5   2.9 7.6   0.9 WSW | 246 13.4   0.1 0.00 0.00 75.1   8.6 53.6   1.7
Napa-South (Toyon Farms) 5/6/26 1700 70.8   8.0 66   12 58.7   3.2 8.4   0.0 WSW | 247 13.0   0.5 0.00 0.00 75.3   8.8 54.4   2.2
Toyon Remote 1 5/6/26 1645 76.5   13.4 - - - - - - - 77.8   7.6 53.2   1.3
Toyon Remote 2 5/6/26 1645 72.5   9.0 - - - - - - - 76.0   8.5 54.2   1.6
Toyon Remote 3 5/6/26 1645 75.1   11.8 - - - - - - - 77.7   8.3 54.7   2.4
Napa-West Lower (Truchard) 5/6/26 1700 74.8   10.8 52   17 56.0   2.3 - - - - - 78.4   8.4 54.0   3.1
Napa-West Upper (Truchard) 5/6/26 1700 72.2   9.2 57   15 56.2   2.3 8.3   1.1 SW | 223 13.9   0.0 0.00 0.00 76.1   9.4 54.1   4.0
Mt. Veeder 5/6/26 1645 66.1   8.6 69   11 55.8   4.2 5.0   2.7 SSE | 160 10.0   2.8 0.00 0.00 70.4   6.8 51.0   3.0
Wooden Valley 5/6/26 1645 72.6   10.9 55   14 55.6   4.0 4.0   2.1 SW | 232 11.5   5.5 0.00 0.00 73.4   10.5 54.3   4.0
Max     76.5 69 59.6 13.9 - 20.7 0.00 0.02 78.4 55.6
Avg     71.3 61 56.5 7.0 - 12.8 0.00 - - -
Min     66.1 52 54.4 2.5 - 8.5 0.00 0.00 70.3 51.0